SOD U12-ZONE 1B - GS
Offical Recreational - Results

SOD U12-ZONE 1B

Jury
TD MAN G.Munro CAN
Referee TSC R.Vendrig CAN
Chief of Race MAN G.Munro CAN
Other Workers
Start Ref man s.ref CAN
Finish Ref man f.ref CAN
Race Admin MAN K.Rutters CAN
Chief of Timing MAN G.Manuel CAN
Technical Data
Course Name
Start 368
Finish 266
Vertical Drop
Length
Homologation 8543/04/07
1st Run 2nd run
Course Setter MAN G.Weames CAN MAN C.Munro CAN
Number of Gates 25/26 25/26
Homologation 8543/04/07
Forerunner 1
Forerunner 2
Forerunner 3
Forerunner 4 Heisz MAN N. CAN

Weather: MILD LIGHT RAIN

Snow:SOFT

Temperature Start: 6 Temperature Finish: 6

Rank Card Bib Name Club YOB Category 1st Run 2nd run Total Time
1 85457 65 CLARK Elli TSCBM 05 U12 32.84 33.17 1:06.01
2 78427 1 DINARDO Olivia JOZOW 05 U12 33.91 35.05 1:08.96
3 85738 14 WEAMES Camryn MSFLD 05 U12 34.93 35.15 1:10.08
4 78803 11 PIRIE Brooke TSCBM 05 U12 35.05 35.11 1:10.16
5 78618 8 WAYLAND Lauren JOZOW 05 U12 35.21 35.19 1:10.40
6 86218 24 SMITH Abigail BEAVR 05 U12 35.28 35.83 1:11.11
7 74790 61 DIMKINA Kalina JOZOW 05 U12 35.74 35.94 1:11.68
8 78818 3 RORABECK Sophie BEAVR 05 U12 35.10 36.78 1:11.88
9 78535 29 PRIBOJ Emerson JOZOW 05 U12 36.51 36.65 1:13.16
10 84753 30 GINGERICH Robyn TSCBM 06 U12 36.70 36.70 1:13.40
11 87072 17 HEISZ Jamie MSFLD 05 U12 36.60 36.87 1:13.47
12 81084 44 VOGEL Eva DEVGL 05 U12 36.70 37.00 1:13.70
13 80746 21 JEDRZEJEWSKI Julianne DEVGL 06 U12 37.02 36.96 1:13.98
14 78353 47 ACTON Bridget JOZOW 06 U12 38.03 36.04 1:14.07
14 89525 25 LANGFORD Genevieve JOZOW 06 U12 37.18 36.89 1:14.07
16 85967 46 PRICE Marley BEAVR 05 U12 37.24 37.05 1:14.29
17 76743 43 KALINS Nora TSCBM 05 U12 37.38 37.30 1:14.68
18 88570 15 HUNTER Brooklyn TSCBM 06 U12 37.46 37.32 1:14.78
19 85578 48 BARTLETT Addison BEAVR 06 U12 38.00 36.81 1:14.81
20 86273 7 MCCANNELL Jamie TSCBM 05 U12 37.80 37.62 1:15.42
21 86246 40 BELLAMY Fiona DEVGL 06 U12 37.58 37.89 1:15.47
22 88365 12 LIST Kate CALDN 05 U12 37.21 38.30 1:15.51
23 85840 56 RODRIGUES Isabelle DEVGL 06 U12 38.52 37.32 1:15.84
24 88376 27 DENNIS Kate MSFLD 05 U12 38.11 37.98 1:16.09
25 85799 32 CONLIFFE Alexandra TSCBM 06 U12 38.44 37.66 1:16.10
26 79132 38 HARRIS Meghan BEAVR 05 U12 38.19 37.93 1:16.12
27 78617 67 WAYLAND Ashley JOZOW 06 U12 38.61 38.02 1:16.63
28 82095 28 MACKAY Charlotte JOZOW 05 U12 38.86 37.90 1:16.76
29 78516 57 MURDOCH Antonia JOZOW 05 U12 38.38 38.41 1:16.79
30 87521 55 MCDANIEL Gabriella CALDN 05 U12 38.66 38.37 1:17.03
31 78697 4 DALRYMPLE Jenna BEAVR 05 U12 38.19 38.85 1:17.04
32 88417 42 MCINTYRE SALINAS Suri?E CALDN 05 U12 38.22 38.88 1:17.10
33 78580 51 STEINER Maia JOZOW 06 U12 38.56 38.59 1:17.15
34 72087 63 RIDE Madison DEVGL 05 U12 38.71 38.67 1:17.38
35 87074 16 MUNRO Carly MSFLD 05 U12 38.10 39.33 1:17.43
36 87529 34 VOLPE Mia MSFLD 05 U12 39.21 38.45 1:17.66
37 82248 26 OLIVER Arwen BEAVR 06 U12 39.04 38.77 1:17.81
38 78172 9 DREGER Lulu TSCBM 05 U12 39.39 38.46 1:17.85
39 87874 31 KOREEN Tessa CALDN 05 U12 38.56 39.43 1:17.99
40 88416 23 LAWSON Alexandria MSFLD 05 U12 39.36 39.67 1:19.03
41 88241 52 STOPPENBRINK Katie MSFLD 05 U12 40.03 39.37 1:19.40
42 88379 13 TRIPP Kate MSFLD 05 U12 39.55 40.27 1:19.82
43 86677 10 REID Ivy TSCBM 06 U12 40.14 39.75 1:19.89
44 88572 66 MCPHAIL Brooke TSCBM 06 U12 39.36 40.60 1:19.96
45 91013 62 PROCTOR Jordan CALDN 06 U12 40.24 39.88 1:20.12
46 85752 45 MARSHALL Abigail DEVGL 06 U12 40.00 40.18 1:20.18
47 80694 22 KORNBERG Talia DEVGL 05 U12 39.94 40.88 1:20.82
48 78387 2 BULAU Zofia (Zoe) JOZOW 05 U12 42.22 40.10 1:22.32
49 80631 64 HYMUS Tara BEAVR 05 U12 41.12 41.74 1:22.86
50 85968 35 CHAPMAN Chloe BEAVR 05 U12 43.22 39.71 1:22.93
51 85584 20 MACLACHLAN Molly DEVGL 06 U12 41.72 43.10 1:24.82
52 87071 68 BECHARD Taylor MSFLD 05 U12 43.20 41.76 1:24.96
53 85577 54 HORAN Tori TSCBM 06 U12 42.23 42.79 1:25.02
54 85554 33 MURRAY Olivia BEAVR 05 U12 42.49 42.96 1:25.45
55 85570 53 MACLAREN Cameron TSCBM 06 U12 43.00 42.75 1:25.75
56 88380 37 WILKINS Rory MSFLD 05 U12 44.90 44.90 1:29.80
57 88062 59 MAZZUCA Danielle MSFLD 05 U12 48.25 47.85 1:36.10
58 88377 36 MCGEE Sophia MSFLD 05 U12 49.26 49.64 1:38.90
59 88568 49 GRUNDON Sedona TSCBM 06 U12 50.95 50.03 1:40.98
999 88248 58 WIGGAN Sophie CALDN 05 U12 DNF DNS
999 91595 60 JOYAL Peyton DEVGL 06 U12 53.31 DNS
999 84815 39 CARTER Juliana TSCBM 06 U12 37.56 DSQ - 7
22/01/2017 / Mansfield Ski Club / REC17.5026